User: anonymous   Login
Location: Brno
(49.2000°N, 16.6330°E)
Time: 13:09:40
(UTC+02:00)
Language:

BREEZE M DEB (TANK) - Orbit

View from above orbital plane
View from above orbital plane
View from above satellite
View from above satellite

Ground track
Ground track

The orbit data is extracted from the following two-line orbital elements,

1 28359U 04022B   15143.83031556  .00004579  00000-0  48739-3 0  9999
2 28359 049.5266 078.5611 4704107 307.7806 033.9797 06.15143286238594
Epoch (UTC): 23 May 2015 19:55:39
Eccentricity: 0.4704107
inclination: 49.5266°
perigee height: 285 km
apogee height: 12122 km
right ascension of ascending node: 78.5611°
argument of perigee: 307.7806°
revolutions per day: 6.15143286
mean anomaly at epoch: 33.9797°
orbit number at epoch: 23859

The dashed part of the orbit path shows where the satellite is in the earth's shadow,  

DLR